Time,TemperatureF,DewpointF,PressureIn,WindDirection,WindDirectionDegrees,WindSpeedMPH,WindSpeedGustMPH,Humidity,HourlyPrecipIn,Conditions,Clouds,dailyrainin,SoftwareType,DateUTC
2013-08-01 00:00:00,59.9,59.9,30.03,North,0,2.2,3.1,100,0.00,,,0.00,VWS V14.01,2013-08-01 04:00:00,
2013-08-01 00:05:00,59.9,59.9,30.03,North,0,2.2,3.1,100,0.00,,,0.00,VWS V14.01,2013-08-01 04:05:00,
2013-08-01 00:10:00,59.7,59.7,30.03,North,0,0.0,2.7,100,0.00,,,0.00,VWS V14.01,2013-08-01 04:10:00,
2013-08-01 00:15:00,59.9,59.9,30.03,North,0,3.1,3.6,100,0.00,,,0.00,VWS V14.01,2013-08-01 04:15:00,
2013-08-01 00:20:00,59.9,59.9,30.03,North,0,0.0,3.6,100,0.00,,,0.00,VWS V14.01,2013-08-01 04:20:00,
2013-08-01 00:30:00,60.4,60.4,30.03,North,0,2.7,3.1,100,0.00,,,0.00,VWS V14.01,2013-08-01 04:30:00,
2013-08-01 00:35:00,60.8,60.8,30.03,North,0,0.0,3.1,100,0.00,,,0.00,VWS V14.01,2013-08-01 04:35:00,
2013-08-01 00:45:00,60.8,60.8,30.03,North,0,2.7,3.1,100,0.00,,,0.00,VWS V14.01,2013-08-01 04:45:00,
2013-08-01 00:55:00,60.8,60.8,30.03,North,0,0.0,2.7,100,0.00,,,0.00,VWS V14.01,2013-08-01 04:55:00,
2013-08-01 01:00:00,60.8,60.8,30.03,North,0,0.0,2.7,100,0.00,,,0.00,VWS V14.01,2013-08-01 05:00:00,
2013-08-01 01:10:00,60.8,60.8,30.03,North,0,2.2,2.7,100,0.00,,,0.00,VWS V14.01,2013-08-01 05:10:00,
2013-08-01 01:15:00,60.8,60.8,30.03,North,0,0.0,2.7,100,0.00,,,0.00,VWS V14.01,2013-08-01 05:15:00,
2013-08-01 01:20:00,61.0,61.0,30.03,North,0,0.0,2.7,100,0.00,,,0.00,VWS V14.01,2013-08-01 05:20:00,
2013-08-01 01:30:00,61.0,61.0,30.00,NNW,346,0.0,4.0,100,0.00,,,0.00,VWS V14.01,2013-08-01 05:30:00,
2013-08-01 01:40:00,61.0,61.0,30.00,North,353,0.0,3.1,100,0.00,,,0.00,VWS V14.01,2013-08-01 05:40:00,
2013-08-01 01:45:00,61.0,61.0,30.00,ENE,63,0.0,2.7,100,0.00,,,0.00,VWS V14.01,2013-08-01 05:45:00,
2013-08-01 01:55:00,61.0,61.0,30.00,SSE,155,0.0,2.7,100,0.00,,,0.00,VWS V14.01,2013-08-01 05:55:00,
2013-08-01 02:05:00,61.0,61.0,30.00,SSE,151,0.0,2.2,100,0.00,,,0.00,VWS V14.01,2013-08-01 06:05:00,
2013-08-01 02:15:00,61.0,61.0,30.00,SSW,211,0.0,3.1,100,0.00,,,0.00,VWS V14.01,2013-08-01 06:15:00,
2013-08-01 02:20:00,62.6,62.6,30.00,SSE,165,4.0,4.0,100,0.00,,,0.00,VWS V14.01,2013-08-01 06:20:00,
2013-08-01 02:30:00,62.6,62.6,30.00,SSE,147,0.0,4.9,100,0.00,,,0.00,VWS V14.01,2013-08-01 06:30:00,
2013-08-01 02:40:00,62.6,62.6,29.97,SSE,155,0.0,4.0,100,0.00,,,0.00,VWS V14.01,2013-08-01 06:40:00,
2013-08-01 02:50:00,65.8,62.3,29.97,ESE,108,2.2,5.4,88,0.00,,,0.00,VWS V14.01,2013-08-01 06:50:00,
2013-08-01 02:55:00,65.8,62.3,29.97,SE,129,0.0,5.4,88,0.00,,,0.00,VWS V14.01,2013-08-01 06:55:00,
2013-08-01 03:05:00,65.1,62.2,29.97,SE,131,0.0,2.7,90,0.00,,,0.00,VWS V14.01,2013-08-01 07:05:00,
2013-08-01 03:15:00,65.5,63.2,29.97,SSE,166,2.7,3.6,92,0.00,,,0.00,VWS V14.01,2013-08-01 07:15:00,
2013-08-01 03:25:00,65.7,63.4,29.97,SSW,202,0.0,3.6,92,0.00,,,0.00,VWS V14.01,2013-08-01 07:25:00,
2013-08-01 03:30:00,65.7,63.4,29.97,SSW,197,2.7,4.9,92,0.00,,,0.00,VWS V14.01,2013-08-01 07:30:00,
2013-08-01 03:40:00,65.7,63.4,29.97,ESE,115,2.7,4.9,92,0.00,,,0.00,VWS V14.01,2013-08-01 07:40:00,
2013-08-01 03:50:00,65.5,63.5,29.97,SW,217,0.0,4.0,93,0.00,,,0.00,VWS V14.01,2013-08-01 07:50:00,
2013-08-01 04:00:00,65.5,63.5,29.97,NE,54,0.0,3.6,93,0.00,,,0.00,VWS V14.01,2013-08-01 08:00:00,
2013-08-01 04:05:00,65.5,63.5,29.97,SE,142,0.0,4.0,93,0.00,,,0.00,VWS V14.01,2013-08-01 08:05:00,
2013-08-01 04:15:00,65.5,64.1,29.97,South,187,2.2,4.0,95,0.00,,,0.00,VWS V14.01,2013-08-01 08:15:00,
2013-08-01 04:25:00,66.0,64.6,29.94,SSE,153,3.1,8.7,95,0.00,,,0.00,VWS V14.01,2013-08-01 08:25:00,
2013-08-01 04:30:00,66.0,64.3,29.94,SSE,165,3.6,8.7,94,0.00,,,0.00,VWS V14.01,2013-08-01 08:30:00,
2013-08-01 04:40:00,65.5,63.8,29.94,SSW,207,3.6,4.9,94,0.00,,,0.00,VWS V14.01,2013-08-01 08:40:00,
2013-08-01 04:55:00,64.9,64.2,29.94,ESE,121,0.0,3.1,97,0.00,,,0.00,VWS V14.01,2013-08-01 08:55:00,
2013-08-01 05:15:00,65.1,65.1,29.94,SSW,192,0.0,6.3,100,0.00,,,0.00,VWS V14.01,2013-08-01 09:15:00,
2013-08-01 05:25:00,65.5,65.5,29.94,SSE,160,2.2,6.3,100,0.00,,,0.00,VWS V14.01,2013-08-01 09:25:00,
2013-08-01 05:35:00,65.3,65.3,29.94,ESE,123,0.0,3.1,100,0.00,,,0.00,VWS V14.01,2013-08-01 09:35:00,
2013-08-01 05:45:00,65.5,65.5,29.94,South,176,0.0,3.1,100,0.00,,,0.00,VWS V14.01,2013-08-01 09:45:00,
2013-08-01 05:50:00,65.5,65.5,29.94,South,190,3.6,3.6,100,0.00,,,0.00,VWS V14.01,2013-08-01 09:50:00,
2013-08-01 06:00:00,65.8,65.8,29.94,SSW,197,2.2,4.0,100,0.00,,,0.00,VWS V14.01,2013-08-01 10:00:00,
2013-08-01 06:15:00,66.2,65.7,29.94,SSW,203,0.0,5.8,98,0.00,,,0.00,VWS V14.01,2013-08-01 10:15:00,
2013-08-01 06:20:00,66.2,65.7,29.94,SSW,200,4.0,5.8,98,0.00,,,0.00,VWS V14.01,2013-08-01 10:20:00,
2013-08-01 06:35:00,66.2,65.4,29.94,SSW,193,0.0,6.7,97,0.00,,,0.00,VWS V14.01,2013-08-01 10:35:00,
2013-08-01 06:45:00,66.4,65.9,29.94,SSW,197,5.4,5.4,98,0.00,,,0.00,VWS V14.01,2013-08-01 10:45:00,
2013-08-01 06:50:00,66.4,65.9,29.94,SSE,158,2.7,5.4,98,0.00,,,0.00,VWS V14.01,2013-08-01 10:50:00,
2013-08-01 07:00:00,66.9,66.1,29.94,East,101,2.7,4.9,97,0.00,,,0.00,VWS V14.01,2013-08-01 11:00:00,
2013-08-01 07:10:00,66.9,66.1,29.94,SSW,198,0.0,4.0,97,0.00,,,0.00,VWS V14.01,2013-08-01 11:10:00,
2013-08-01 07:20:00,67.3,66.5,29.94,East,84,2.7,6.3,97,0.00,,,0.00,VWS V14.01,2013-08-01 11:20:00,
2013-08-01 07:30:00,67.6,66.6,29.94,East,92,4.0,6.3,96,0.00,,,0.00,VWS V14.01,2013-08-01 11:30:00,
2013-08-01 07:35:00,67.8,66.4,29.94,SE,137,3.6,8.3,95,0.00,,,0.00,VWS V14.01,2013-08-01 11:35:00,
2013-08-01 07:45:00,68.2,66.5,29.94,SE,124,3.1,8.3,94,0.00,,,0.00,VWS V14.01,2013-08-01 11:45:00,
2013-08-01 07:55:00,68.5,66.2,29.94,SSW,204,4.0,6.3,92,0.00,,,0.00,VWS V14.01,2013-08-01 11:55:00,
2013-08-01 08:05:00,68.5,66.2,29.94,SSE,150,0.0,5.8,92,0.00,,,0.00,VWS V14.01,2013-08-01 12:05:00,
2013-08-01 08:10:00,68.5,66.2,29.94,East,95,2.7,5.8,92,0.00,,,0.00,VWS V14.01,2013-08-01 12:10:00,
2013-08-01 08:20:00,68.5,66.2,29.91,SSW,204,3.1,6.3,92,0.00,,,0.00,VWS V14.01,2013-08-01 12:20:00,
2013-08-01 08:35:00,68.5,66.2,29.91,ENE,69,4.0,6.3,92,0.00,,,0.00,VWS V14.01,2013-08-01 12:35:00,
2013-08-01 08:45:00,68.5,66.2,29.91,SSW,206,4.0,8.1,92,0.00,,,0.00,VWS V14.01,2013-08-01 12:45:00,
2013-08-01 09:00:00,68.5,66.2,29.91,South,183,3.6,8.7,92,0.00,,,0.00,VWS V14.01,2013-08-01 13:00:00,
2013-08-01 09:10:00,68.5,66.2,29.91,SSE,153,7.6,12.8,92,0.00,,,0.00,VWS V14.01,2013-08-01 13:10:00,
2013-08-01 09:25:00,68.5,66.2,29.91,South,190,8.3,10.5,92,0.00,,,0.00,VWS V14.01,2013-08-01 13:25:00,
2013-08-01 09:30:00,68.5,66.2,29.91,SSW,196,2.7,11.0,92,0.00,,,0.00,VWS V14.01,2013-08-01 13:30:00,
2013-08-01 09:55:00,68.5,66.2,29.91,SSW,203,3.1,8.7,92,0.00,,,0.00,VWS V14.01,2013-08-01 13:55:00,
2013-08-01 10:00:00,68.5,66.2,29.91,South,172,0.0,8.7,92,0.00,,,0.00,VWS V14.01,2013-08-01 14:00:00,
2013-08-01 10:05:00,68.7,68.2,29.91,SW,215,5.8,8.3,98,0.00,,,0.00,VWS V14.01,2013-08-01 14:05:00,
2013-08-01 10:20:00,68.7,68.2,29.91,SSE,164,3.6,7.2,98,0.00,,,0.00,VWS V14.01,2013-08-01 14:20:00,
2013-08-01 10:45:00,69.4,68.7,29.88,SSE,153,5.8,8.7,97,0.00,,,0.00,VWS V14.01,2013-08-01 14:45:00,
2013-08-01 10:50:00,69.4,68.7,29.88,SE,126,2.2,8.7,97,0.00,,,0.00,VWS V14.01,2013-08-01 14:50:00,
2013-08-01 11:00:00,69.4,68.7,29.88,SSW,196,5.8,8.7,97,0.00,,,0.00,VWS V14.01,2013-08-01 15:00:00,
2013-08-01 11:05:00,69.4,68.9,29.88,SSE,165,5.4,8.7,98,0.00,,,0.00,VWS V14.01,2013-08-01 15:05:00,
2013-08-01 11:15:00,69.4,68.9,29.88,SSW,201,6.3,8.7,98,0.00,,,0.00,VWS V14.01,2013-08-01 15:15:00,
2013-08-01 11:25:00,69.4,68.9,29.88,SSE,160,4.0,11.0,98,0.00,,,0.00,VWS V14.01,2013-08-01 15:25:00,
2013-08-01 11:40:00,70.3,68.6,29.88,South,178,3.1,13.2,94,0.00,,,0.00,VWS V14.01,2013-08-01 15:40:00,
2013-08-01 11:50:00,70.3,68.6,29.88,ESE,120,3.6,8.7,94,0.00,,,0.00,VWS V14.01,2013-08-01 15:50:00,
2013-08-01 12:00:00,70.3,68.6,29.88,South,179,4.9,8.7,94,0.00,,,0.00,VWS V14.01,2013-08-01 16:00:00,
2013-08-01 12:15:00,70.3,68.6,29.88,SSW,198,6.3,11.0,94,0.00,,,0.00,VWS V14.01,2013-08-01 16:15:00,
2013-08-01 12:30:00,70.3,68.6,29.88,SSW,195,7.6,11.0,94,0.00,,,0.00,VWS V14.01,2013-08-01 16:30:00,
2013-08-01 12:40:00,70.3,68.6,29.88,SSW,213,2.7,8.7,94,0.00,,,0.00,VWS V14.01,2013-08-01 16:40:00,
2013-08-01 13:00:00,70.3,68.6,29.88,South,184,3.1,8.1,94,0.00,,,0.00,VWS V14.01,2013-08-01 17:00:00,
2013-08-01 13:10:00,70.3,68.6,29.88,South,173,5.4,8.1,94,0.00,,,0.00,VWS V14.01,2013-08-01 17:10:00,
2013-08-01 13:20:00,70.3,68.6,29.88,SSW,205,5.4,7.6,94,0.00,,,0.00,VWS V14.01,2013-08-01 17:20:00,
2013-08-01 13:30:00,70.3,68.6,29.88,SE,131,6.3,7.6,94,0.00,,,0.00,VWS V14.01,2013-08-01 17:30:00,
2013-08-01 13:35:00,70.3,68.6,29.88,South,185,5.8,10.1,94,0.00,,,0.00,VWS V14.01,2013-08-01 17:35:00,
2013-08-01 13:45:00,70.3,68.6,29.88,South,187,5.4,10.1,94,0.00,,,0.00,VWS V14.01,2013-08-01 17:45:00,
2013-08-01 13:55:00,70.3,68.6,29.88,SSE,149,3.1,8.7,94,0.00,,,0.00,VWS V14.01,2013-08-01 17:55:00,
2013-08-01 14:00:00,70.3,68.6,29.88,South,185,8.3,8.7,94,0.00,,,0.00,VWS V14.01,2013-08-01 18:00:00,
2013-08-01 14:20:00,70.3,68.6,29.88,SSW,199,8.3,11.0,94,0.00,,,0.00,VWS V14.01,2013-08-01 18:20:00,
2013-08-01 14:30:00,70.3,68.6,29.85,SSE,158,3.1,11.0,94,0.00,,,0.00,VWS V14.01,2013-08-01 18:30:00,
2013-08-01 14:40:00,70.3,68.6,29.85,South,179,4.0,12.3,94,0.00,,,0.00,VWS V14.01,2013-08-01 18:40:00,
2013-08-01 14:45:00,70.3,68.6,29.85,SSE,152,8.1,12.3,94,0.00,,,0.00,VWS V14.01,2013-08-01 18:45:00,
2013-08-01 14:50:00,70.3,68.6,29.85,SSW,192,6.3,11.0,94,0.00,,,0.00,VWS V14.01,2013-08-01 18:50:00,
2013-08-01 14:55:00,70.3,68.6,29.85,South,184,4.9,11.0,94,0.00,,,0.00,VWS V14.01,2013-08-01 18:55:00,
2013-08-01 15:10:00,77.2,68.0,29.85,West,268,0.0,11.0,73,0.00,,,0.00,VWS V14.01,2013-08-01 19:10:00,
2013-08-01 15:20:00,78.3,65.7,29.85,SSW,202,5.8,11.4,65,0.00,,,0.00,VWS V14.01,2013-08-01 19:20:00,
2013-08-01 15:35:00,79.3,66.7,29.85,SSW,204,6.7,11.0,65,0.00,,,0.00,VWS V14.01,2013-08-01 19:35:00,
2013-08-01 15:55:00,77.9,64.9,29.85,SW,235,5.4,9.2,64,0.00,,,0.00,VWS V14.01,2013-08-01 19:55:00,
2013-08-01 16:05:00,78.1,64.6,29.85,WSW,240,13.2,15.0,63,0.00,,,0.00,VWS V14.01,2013-08-01 20:05:00,
2013-08-01 16:15:00,69.6,62.9,29.88,NW,314,6.3,15.0,79,0.00,,,0.00,VWS V14.01,2013-08-01 20:15:00,
2013-08-01 16:20:00,69.1,63.1,29.88,NW,306,11.0,13.2,81,0.00,,,0.00,VWS V14.01,2013-08-01 20:20:00,
2013-08-01 16:40:00,67.6,65.9,29.88,WNW,295,8.7,10.1,94,0.00,,,0.00,VWS V14.01,2013-08-01 20:40:00,
2013-08-01 16:55:00,68.4,68.2,29.88,WNW,303,3.6,6.7,99,0.00,,,0.00,VWS V14.01,2013-08-01 20:55:00,
2013-08-01 17:15:00,70.2,70.2,29.88,NW,317,6.3,6.3,100,0.00,,,0.00,VWS V14.01,2013-08-01 21:15:00,
2013-08-01 17:25:00,73.4,68.7,29.88,WNW,293,2.7,8.3,85,0.00,,,0.00,VWS V14.01,2013-08-01 21:25:00,
2013-08-01 17:30:00,73.2,67.5,29.88,SW,221,4.0,8.3,82,0.00,,,0.00,VWS V14.01,2013-08-01 21:30:00,
2013-08-01 17:40:00,72.5,66.8,29.88,North,353,5.4,6.7,82,0.00,,,0.00,VWS V14.01,2013-08-01 21:40:00,
2013-08-01 17:55:00,72.7,67.0,29.88,WNW,285,4.9,10.1,82,0.00,,,0.00,VWS V14.01,2013-08-01 21:55:00,
2013-08-01 18:05:00,72.7,67.0,29.88,West,278,7.6,11.4,82,0.00,,,0.00,VWS V14.01,2013-08-01 22:05:00,
2013-08-01 18:10:00,74.7,62.3,29.88,West,265,5.8,11.4,65,0.00,,,0.00,VWS V14.01,2013-08-01 22:10:00,
2013-08-01 18:20:00,73.9,62.0,29.88,WNW,295,8.3,10.1,66,0.00,,,0.00,VWS V14.01,2013-08-01 22:20:00,
2013-08-01 18:25:00,73.9,62.0,29.88,North,353,2.7,9.6,66,0.00,,,0.00,VWS V14.01,2013-08-01 22:25:00,
2013-08-01 18:35:00,74.3,61.9,29.88,West,266,5.4,8.3,65,0.00,,,0.00,VWS V14.01,2013-08-01 22:35:00,
2013-08-01 18:45:00,74.7,60.0,29.88,North,0,2.7,7.6,60,0.00,,,0.00,VWS V14.01,2013-08-01 22:45:00,
2013-08-01 18:55:00,74.3,59.7,29.88,WNW,286,6.3,8.1,60,0.00,,,0.00,VWS V14.01,2013-08-01 22:55:00,
2013-08-01 19:00:00,74.3,59.7,29.88,NW,304,5.8,8.3,60,0.00,,,0.00,VWS V14.01,2013-08-01 23:00:00,
2013-08-01 19:10:00,74.3,59.7,29.88,WNW,301,4.0,8.3,60,0.00,,,0.00,VWS V14.01,2013-08-01 23:10:00,
2013-08-01 19:15:00,74.3,59.7,29.88,NW,314,2.2,8.3,60,0.00,,,0.00,VWS V14.01,2013-08-01 23:15:00,
2013-08-01 19:25:00,73.8,60.1,29.88,NNW,328,5.8,7.6,62,0.00,,,0.00,VWS V14.01,2013-08-01 23:25:00,
2013-08-01 19:30:00,73.2,60.0,29.88,North,10,2.2,5.8,63,0.00,,,0.00,VWS V14.01,2013-08-01 23:30:00,
2013-08-01 19:35:00,72.5,59.8,29.88,NNW,333,0.0,5.8,64,0.00,,,0.00,VWS V14.01,2013-08-01 23:35:00,
2013-08-01 19:45:00,69.3,62.2,29.88,NNW,333,2.7,3.6,78,0.00,,,0.00,VWS V14.01,2013-08-01 23:45:00,
2013-08-01 19:50:00,68.5,62.9,29.88,NNW,333,2.2,3.6,82,0.00,,,0.00,VWS V14.01,2013-08-01 23:50:00,
2013-08-01 20:00:00,67.6,63.7,29.91,NW,321,3.6,4.0,87,0.00,,,0.00,VWS V14.01,2013-08-02 00:00:00,
2013-08-01 20:10:00,66.9,64.0,29.91,NW,317,0.0,4.0,90,0.00,,,0.00,VWS V14.01,2013-08-02 00:10:00,
2013-08-01 20:20:00,66.0,64.0,29.91,NW,317,0.0,2.7,93,0.00,,,0.00,VWS V14.01,2013-08-02 00:20:00,
2013-08-01 20:30:00,65.1,63.8,29.91,NW,317,0.0,0.0,95,0.00,,,0.00,VWS V14.01,2013-08-02 00:30:00,
2013-08-01 20:35:00,64.6,63.5,29.91,NW,317,0.0,0.0,96,0.00,,,0.00,VWS V14.01,2013-08-02 00:35:00,
2013-08-01 20:45:00,63.7,63.2,29.91,NW,317,0.0,0.0,98,0.00,,,0.00,VWS V14.01,2013-08-02 00:45:00,
2013-08-01 20:55:00,63.1,63.1,29.91,NW,317,0.0,0.0,100,0.00,,,0.00,VWS V14.01,2013-08-02 00:55:00,
2013-08-01 21:00:00,63.0,63.0,29.91,NW,317,0.0,0.0,100,0.00,,,0.00,VWS V14.01,2013-08-02 01:00:00,
2013-08-01 21:05:00,62.6,62.6,29.91,NW,317,0.0,0.0,100,0.00,,,0.00,VWS V14.01,2013-08-02 01:05:00,
2013-08-01 21:10:00,62.2,62.2,29.91,NW,317,0.0,0.0,100,0.00,,,0.00,VWS V14.01,2013-08-02 01:10:00,
2013-08-01 21:20:00,61.9,61.9,29.91,NW,317,0.0,0.0,100,0.00,,,0.00,VWS V14.01,2013-08-02 01:20:00,
2013-08-01 21:35:00,61.7,61.7,29.91,NE,35,0.0,0.0,100,0.00,,,0.00,VWS V14.01,2013-08-02 01:35:00,
2013-08-01 21:45:00,61.5,61.5,29.91,North,0,0.0,0.0,100,0.00,,,0.00,VWS V14.01,2013-08-02 01:45:00,
2013-08-01 21:55:00,61.5,61.5,29.91,NNE,17,0.0,0.0,100,0.00,,,0.00,VWS V14.01,2013-08-02 01:55:00,
2013-08-01 22:00:00,61.3,61.3,29.91,NNE,17,2.2,2.7,100,0.00,,,0.00,VWS V14.01,2013-08-02 02:00:00,
2013-08-01 22:10:00,60.6,60.6,29.91,NNE,17,2.2,3.6,100,0.00,,,0.00,VWS V14.01,2013-08-02 02:10:00,
2013-08-01 22:25:00,60.3,60.3,29.91,North,9,0.0,2.7,100,0.00,,,0.00,VWS V14.01,2013-08-02 02:25:00,
2013-08-01 22:30:00,60.3,60.3,29.91,North,9,2.2,2.7,100,0.00,,,0.00,VWS V14.01,2013-08-02 02:30:00,
2013-08-01 22:40:00,60.1,60.1,29.91,North,9,0.0,2.7,100,0.00,,,0.00,VWS V14.01,2013-08-02 02:40:00,
2013-08-01 22:45:00,59.7,59.7,29.91,North,9,0.0,2.7,100,0.00,,,0.00,VWS V14.01,2013-08-02 02:45:00,
2013-08-01 22:55:00,59.5,59.5,29.91,North,9,0.0,0.0,100,0.00,,,0.00,VWS V14.01,2013-08-02 02:55:00,
2013-08-01 23:05:00,59.4,59.4,29.91,North,9,0.0,0.0,100,0.00,,,0.00,VWS V14.01,2013-08-02 03:05:00,
2013-08-01 23:15:00,59.2,59.2,29.91,North,9,0.0,3.1,100,0.00,,,0.00,VWS V14.01,2013-08-02 03:15:00,
2013-08-01 23:20:00,59.2,59.2,29.91,North,9,0.0,3.1,100,0.00,,,0.00,VWS V14.01,2013-08-02 03:20:00,
2013-08-01 23:35:00,59.2,59.2,29.91,North,9,0.0,3.1,100,0.00,,,0.00,VWS V14.01,2013-08-02 03:35:00,
2013-08-01 23:50:00,59.5,59.5,29.91,North,9,0.0,2.7,100,0.00,,,0.00,VWS V14.01,2013-08-02 03:50:00,
2013-08-01 23:55:00,59.5,59.5,29.91,North,9,0.0,2.7,100,0.00,,,0.00,VWS V14.01,2013-08-02 03:55:00,